{"data":{"norad_id":63321,"intl_designator":"2025-057Q","name":"STARLINK-33650","alt_names":[],"object_type":"PAYLOAD","status":"ACTIVE","operator":null,"country":"US","launch_date":"2025-03-18","launch_site_code":"AFETR","launch_vehicle":null,"mission":null,"orbit_class":"UNKNOWN","rcs_meters":null,"size_class":null,"mass_kg":null,"dimensions":null,"purposes":["comms"],"wikipedia_slug":null,"has_3d_model":false,"image_url":null,"decayed_at":null,"tle_current":{"epoch":"2026-05-24T21:19:38.894304Z","epoch_age_seconds":81513,"freshness":"FRESH","line1":"1 63321U 25057Q   26144.88864461  .00008573  00000+0  32061-3 0  9993","line2":"2 63321  43.0012 320.2978 0001681 263.1679  96.8981 15.27589124 67398","mean_motion":15.27589124,"eccentricity":0.0001681,"inclination_deg":43.0012,"raan_deg":320.2978,"arg_perigee_deg":263.1679,"mean_anomaly_deg":96.8981,"bstar":0.00032061,"rev_number":6739,"period_min":94.266185676247,"perigee_km":481.86841484711,"apogee_km":484.17513642748,"semimajor_km":6861.1587756373,"source":"CELESTRAK","updated_at":"2026-05-25T13:38:19.958897Z"}}}